Time[GMT],current_speed[cm/s](2m),current_direction[angular_degrees](2m),temperature[C](2m),current_u[cm/s](2m),current_v[cm/s](2m)
2018-07-09 15:00,18.18,118.9,15.92,15.92,-8.79
2018-07-09 16:00,21.70,163.9,16.01,6.01,-20.86
2018-07-09 17:00,26.69,147.8,16.14,14.24,-22.57
2018-07-09 18:00,10.85,44.7,16.26,7.64,7.71
2018-07-09 19:00,16.72,53.9,16.26,13.50,9.86
2018-07-09 20:00,23.17,0.8,16.33,0.32,23.17
2018-07-09 21:00,28.16,17.3,16.17,8.38,26.88
2018-07-09 22:00,17.60,34.9,16.08,10.07,14.44
2018-07-09 23:00,24.34,36.3,16.01,14.41,19.62
2018-07-10 00:00,22.88,38.4,16.01,14.21,17.93
2018-07-10 01:00,20.82,93.3,16.01,20.79,-1.18
2018-07-10 02:00,26.69,137.6,15.82,18.01,-19.70
2018-07-10 03:00,34.32,136.5,15.76,23.62,-24.89
2018-07-10 04:00,39.01,136.9,15.76,26.68,-28.46
2018-07-10 05:00,24.93,135.4,15.73,17.49,-17.77
2018-07-10 06:00,15.84,125.6,15.64,12.88,-9.22
2018-07-10 07:00,11.44,126.3,15.64,9.22,-6.77
2018-07-10 08:00,23.46,75.3,15.67,22.70,5.95
2018-07-10 09:00,21.12,39.5,15.67,13.42,16.30
2018-07-10 10:00,21.70,34.5,15.67,12.30,17.88
2018-07-10 11:00,9.39,36.6,15.70,5.60,7.53
2018-07-10 12:00,12.32,356.6,15.73,-0.74,12.30
2018-07-10 13:00,9.39,50.7,15.82,7.26,5.94
2018-07-10 14:00,19.65,126.7,15.89,15.76,-11.73
2018-07-10 15:00,30.80,154.8,15.89,13.12,-27.86
2018-07-10 16:00,43.70,170.3,15.82,7.40,-43.07
2018-07-10 17:00,20.24,132.3,15.89,14.97,-13.62
2018-07-10 18:00,8.51,0.1,15.92,0.01,8.51
2018-07-10 19:00,17.89,33.8,16.08,9.96,14.86
2018-07-10 20:00,34.61,17.7,16.08,10.50,32.98
2018-07-10 21:00,31.09,42.3,16.36,20.91,23.01
2018-07-10 22:00,28.74,49.7,16.33,21.91,18.61
2018-07-10 23:00,21.70,38.8,16.36,13.59,16.93
2018-07-11 00:00,13.49,41.6,16.26,8.95,10.09
2018-07-11 01:00,9.68,64.4,16.17,8.73,4.18
2018-07-11 02:00,17.30,149.2,16.20,8.87,-14.86
2018-07-11 03:00,31.09,151.6,16.33,14.78,-27.35
2018-07-11 04:00,37.25,175.2,16.39,3.13,-37.12
2018-07-11 05:00,48.39,171.0,16.42,7.61,-47.79
2018-07-11 06:00,38.13,214.9,16.39,-21.82,-31.27
2018-07-11 07:00,11.73,254.6,16.42,-11.31,-3.11
2018-07-11 08:00,19.94,313.7,16.36,-14.42,13.78
2018-07-11 09:00,25.22,348.5,16.30,-5.04,24.72
2018-07-11 10:00,32.26,354.8,16.26,-2.92,32.13
2018-07-11 11:00,18.77,348.5,16.23,-3.75,18.39
2018-07-11 12:00,17.89,319.0,16.23,-11.74,13.50
2018-07-11 13:00,19.94,340.8,16.20,-6.57,18.83
2018-07-11 14:00,8.51,340.8,16.08,-2.80,8.03
2018-07-11 15:00,26.98,218.1,16.23,-16.64,-21.24
2018-07-11 16:00,,,,,
2018-07-11 17:00,,,,,
2018-07-11 18:00,18.77,202.6,16.36,-7.21,-17.33
2018-07-11 19:00,3.81,293.7,16.36,-3.49,1.53
2018-07-11 20:00,27.57,265.5,16.33,-27.49,-2.14
2018-07-11 21:00,22.58,353.4,16.45,-2.60,22.43
2018-07-11 22:00,34.02,356.9,16.39,-1.83,33.97
2018-07-11 23:00,26.40,0.4,16.42,0.20,26.40
2018-07-12 00:00,16.72,7.8,16.39,2.27,16.56
2018-07-12 01:00,19.06,39.5,16.42,12.12,14.72
2018-07-12 02:00,7.33,53.2,16.42,5.87,4.40
2018-07-12 03:00,15.84,173.1,16.39,1.91,-15.72
2018-07-12 04:00,21.41,185.4,16.36,-2.00,-21.32
2018-07-12 05:00,35.49,180.1,16.36,-0.06,-35.49
2018-07-12 06:00,17.60,216.3,16.36,-10.42,-14.18
2018-07-12 07:00,13.49,273.6,16.33,-13.46,0.85
2018-07-12 08:00,18.48,189.6,16.26,-3.08,-18.22
2018-07-12 09:00,19.06,351.3,16.23,-2.89,18.84
2018-07-12 10:00,18.77,353.4,16.23,-2.16,18.65
2018-07-12 11:00,24.34,349.2,16.23,-4.57,23.91
2018-07-12 12:00,30.50,18.0,16.26,9.43,29.01
2018-07-12 13:00,15.25,12.4,16.33,3.27,14.90
2018-07-12 14:00,8.51,7.5,16.39,1.10,8.43
2018-07-12 15:00,11.15,28.2,16.45,5.27,9.82
2018-07-12 16:00,31.97,186.1,16.67,-3.38,-31.79
2018-07-12 17:00,26.10,190.3,16.61,-4.67,-25.68
2018-07-12 18:00,40.48,189.2,16.80,-6.50,-39.95
2018-07-12 19:00,25.52,311.2,17.02,-19.19,16.82
2018-07-12 20:00,10.56,260.6,17.12,-10.42,-1.72
2018-07-12 21:00,12.61,59.5,16.99,10.87,6.40
2018-07-12 22:00,23.76,31.0,16.86,12.24,20.36
2018-07-12 23:00,33.73,15.6,16.93,9.04,32.49
2018-07-13 00:00,26.40,34.2,17.49,14.83,21.84
2018-07-13 01:00,14.96,54.9,17.37,12.24,8.59
2018-07-13 02:00,6.16,80.6,17.27,6.08,1.01
2018-07-13 03:00,2.64,154.1,16.77,1.15,-2.37
2018-07-13 04:00,19.94,176.9,17.08,1.07,-19.92
2018-07-13 05:00,13.20,176.6,16.23,0.79,-13.18
2018-07-13 06:00,35.78,204.0,17.12,-14.56,-32.69
2018-07-13 07:00,47.22,199.8,16.96,-15.99,-44.43
2018-07-13 08:00,37.54,217.0,17.05,-22.60,-29.98
2018-07-13 09:00,7.33,185.4,17.08,-0.69,-7.30
2018-07-13 10:00,17.01,353.0,16.86,-2.06,16.89
2018-07-13 11:00,51.03,356.6,16.99,-3.06,50.94
2018-07-13 12:00,55.73,6.8,16.86,6.56,55.34
2018-07-13 13:00,20.82,11.0,16.93,3.97,20.44
2018-07-13 14:00,16.42,49.7,16.99,12.52,10.63
2018-07-13 15:00,19.94,2.9,16.64,1.01,19.92
2018-07-13 16:00,12.03,124.5,15.98,9.90,-6.82
2018-07-13 17:00,17.01,235.3,17.49,-13.99,-9.68
2018-07-13 18:00,17.89,167.4,17.37,3.89,-17.46
2018-07-13 19:00,20.53,154.1,18.29,8.97,-18.47
2018-07-13 20:00,6.75,164.3,18.06,1.83,-6.49
2018-07-13 21:00,4.99,139.3,18.03,3.25,-3.78
2018-07-13 22:00,11.15,18.4,18.03,3.51,10.58
2018-07-13 23:00,40.18,352.7,17.97,-5.11,39.86
2018-07-14 00:00,28.74,4.3,17.78,2.15,28.66
2018-07-14 01:00,31.09,349.9,17.65,-5.46,30.61
2018-07-14 02:00,31.97,331.3,17.37,-15.36,28.04
2018-07-14 03:00,35.78,313.4,17.15,-26.02,24.57
2018-07-14 04:00,21.70,330.9,17.02,-10.54,18.97
2018-07-14 05:00,26.98,232.1,16.48,-21.30,-16.56
2018-07-14 06:00,24.64,182.9,15.98,-1.25,-24.61
2018-07-14 07:00,6.45,143.5,16.77,3.84,-5.19
2018-07-14 08:00,15.54,137.9,16.14,10.42,-11.54
2018-07-14 09:00,35.78,135.4,16.23,25.10,-25.50
2018-07-14 10:00,27.28,92.6,16.61,27.25,-1.21
2018-07-14 11:00,9.68,73.9,16.30,9.30,2.68
2018-07-14 12:00,10.27,3.2,16.39,0.58,10.25
2018-07-14 13:00,22.29,14.8,16.42,5.71,21.55
2018-07-14 14:00,10.85,313.7,16.48,-7.84,7.50
2018-07-14 15:00,10.56,317.6,16.52,-7.12,7.79
2018-07-14 16:00,16.13,270.1,16.52,-16.13,0.03
2018-07-14 17:00,32.56,285.2,16.77,-31.41,8.55
2018-07-14 18:00,35.20,261.3,17.12,-34.79,-5.31
2018-07-14 19:00,6.16,174.5,16.01,0.59,-6.13
2018-07-14 20:00,18.18,354.1,17.15,-1.87,18.09
2018-07-14 21:00,22.29,85.2,16.96,22.21,1.88
2018-07-14 22:00,29.62,115.4,16.93,26.76,-12.71
2018-07-14 23:00,42.53,57.7,16.61,35.96,22.70
2018-07-15 00:00,26.10,57.0,16.80,21.90,14.20
2018-07-15 01:00,10.27,52.1,16.67,8.10,6.30
2018-07-15 02:00,24.64,48.2,16.55,18.38,16.41
2018-07-15 03:00,16.13,125.2,16.58,13.17,-9.31
2018-07-15 04:00,14.96,167.8,16.30,3.16,-14.62
2018-07-15 05:00,18.77,350.2,15.82,-3.18,18.50
2018-07-15 06:00,36.96,212.1,16.39,-19.64,-31.31
2018-07-15 07:00,29.04,197.3,16.20,-8.65,-27.72
2018-07-15 08:00,40.18,186.8,16.45,-4.74,-39.90
2018-07-15 09:00,32.26,245.5,16.64,-29.36,-13.38
2018-07-15 10:00,20.24,292.6,16.52,-18.68,7.78
2018-07-15 11:00,36.37,32.8,16.55,19.69,30.58
2018-07-15 12:00,33.44,17.7,16.58,10.14,31.86
2018-07-15 13:00,37.84,20.1,16.48,13.02,35.53
2018-07-15 14:00,44.58,25.4,16.45,19.12,40.27
2018-07-15 15:00,28.74,23.3,16.64,11.36,26.40
2018-07-15 16:00,18.48,39.8,16.45,11.83,14.19
2018-07-15 17:00,9.68,340.1,15.70,-3.30,9.10
2018-07-15 18:00,7.92,284.5,16.74,-7.67,1.99
2018-07-15 19:00,17.30,163.9,16.99,4.79,-16.63
2018-07-15 20:00,37.25,164.6,16.89,9.87,-35.92
2018-07-15 21:00,28.74,159.7,17.18,9.97,-26.96
2018-07-15 22:00,62.47,183.3,17.24,-3.56,-62.37
2018-07-15 23:00,9.97,281.4,17.40,-9.78,1.96
2018-07-16 00:00,26.69,37.0,17.31,16.06,21.32
2018-07-16 01:00,19.94,18.7,17.15,6.40,18.89
2018-07-16 02:00,38.13,353.8,16.93,-4.15,37.90
2018-07-16 03:00,35.20,7.1,17.02,4.36,34.93
2018-07-16 04:00,20.24,353.4,16.74,-2.33,20.10
2018-07-16 05:00,27.57,354.1,16.96,-2.83,27.42
2018-07-16 06:00,4.40,277.1,16.96,-4.37,0.55
2018-07-16 07:00,35.49,151.6,16.93,16.87,-31.22
2018-07-16 08:00,35.49,145.6,16.93,20.03,-29.30
2018-07-16 09:00,31.68,130.2,16.80,24.20,-20.43
2018-07-16 10:00,39.89,147.4,15.23,21.49,-33.60
2018-07-16 11:00,46.05,168.5,16.39,9.18,-45.12
2018-07-16 12:00,26.69,74.6,16.89,25.73,7.08
2018-07-16 13:00,5.28,271.5,16.83,-5.28,0.14
2018-07-16 14:00,13.79,43.3,16.48,9.46,10.03
2018-07-16 15:00,19.36,352.3,16.80,-2.58,19.19
2018-07-16 16:00,17.01,331.3,16.55,-8.17,14.92
2018-07-16 17:00,9.09,345.3,16.77,-2.31,8.80
2018-07-16 18:00,16.42,272.2,16.80,-16.41,0.64
2018-07-16 19:00,9.68,79.2,16.80,9.51,1.82
2018-07-16 20:00,29.33,157.2,15.86,11.34,-27.05
2018-07-16 21:00,39.01,145.3,15.67,22.21,-32.07
2018-07-16 22:00,31.68,153.4,16.26,14.19,-28.32
2018-07-16 23:00,5.28,174.1,16.71,0.54,-5.25
2018-07-17 00:00,19.06,134.0,16.61,13.70,-13.25
2018-07-17 01:00,14.66,71.1,16.61,13.87,4.75
2018-07-17 02:00,36.66,66.9,17.27,33.72,14.39
2018-07-17 03:00,23.46,57.0,16.67,19.69,12.77
2018-07-17 04:00,20.24,65.1,17.05,18.36,8.51
2018-07-17 05:00,12.61,93.6,17.08,12.59,-0.79
2018-07-17 06:00,8.51,346.0,15.89,-2.06,8.25
2018-07-17 07:00,17.30,165.0,15.82,4.48,-16.71
2018-07-17 08:00,32.85,183.3,16.86,-1.87,-32.80
2018-07-17 09:00,49.86,178.0,16.77,1.75,-49.83
2018-07-17 10:00,31.38,195.9,16.77,-8.61,-30.18
2018-07-17 11:00,26.40,208.9,16.71,-12.77,-23.10
2018-07-17 12:00,3.81,30.3,15.76,1.92,3.29
2018-07-17 13:00,41.36,23.3,16.23,16.35,37.99
2018-07-17 14:00,46.34,53.5,16.52,37.26,27.55
2018-07-17 15:00,40.77,44.0,16.80,28.34,29.31
2018-07-17 16:00,57.49,24.7,16.71,24.01,52.23
2018-07-17 17:00,29.33,79.2,16.39,28.81,5.50
2018-07-17 18:00,23.76,79.5,16.52,23.36,4.31
2018-07-17 19:00,25.22,64.8,16.45,22.82,10.75
2018-07-17 20:00,25.22,116.5,16.45,22.58,-11.24
2018-07-17 21:00,33.14,130.2,16.11,25.32,-21.38
2018-07-17 22:00,29.92,113.3,16.42,27.48,-11.83
2018-07-17 23:00,59.25,121.0,16.11,50.77,-30.54
2018-07-18 00:00,54.26,125.6,15.82,44.12,-31.59
2018-07-18 01:00,51.91,131.2,16.11,39.04,-34.21
2018-07-18 02:00,30.80,120.0,16.33,26.68,-15.39
2018-07-18 03:00,16.13,77.8,16.20,15.77,3.41
2018-07-18 04:00,13.79,55.3,16.11,11.33,7.85
2018-07-18 05:00,15.25,15.9,16.11,4.18,14.67
2018-07-18 06:00,10.56,40.5,16.17,6.86,8.03
2018-07-18 07:00,13.79,49.0,16.14,10.40,9.05
2018-07-18 08:00,13.20,207.9,16.14,-6.17,-11.67
2018-07-18 09:00,14.08,239.2,16.04,-12.09,-7.22
2018-07-18 10:00,20.53,200.5,16.01,-7.19,-19.23
2018-07-18 11:00,13.20,183.6,16.08,-0.83,-13.17
2018-07-18 12:00,23.46,120.0,16.08,20.33,-11.72
2018-07-18 13:00,38.42,90.8,16.04,38.42,-0.53
2018-07-18 14:00,26.98,69.3,16.20,25.25,9.52
2018-07-18 15:00,27.28,88.3,16.33,27.27,0.79
2018-07-18 16:00,19.94,120.7,16.55,17.15,-10.18
2018-07-18 17:00,4.99,35.9,16.67,2.93,4.04
2018-07-18 18:00,10.27,217.7,16.96,-6.28,-8.12
2018-07-18 19:00,9.09,203.0,16.64,-3.55,-8.37
2018-07-18 20:00,7.04,347.1,15.64,-1.57,6.86
2018-07-18 21:00,24.05,203.0,16.67,-9.38,-22.15
2018-07-18 22:00,39.60,250.1,16.55,-37.22,-13.50
2018-07-18 23:00,18.48,220.5,16.61,-12.01,-14.04
2018-07-19 00:00,13.79,282.4,16.64,-13.46,2.96
2018-07-19 01:00,18.77,0.8,16.42,0.26,18.77
2018-07-19 02:00,19.65,25.4,17.02,8.43,17.75
2018-07-19 03:00,19.65,42.3,16.64,13.22,14.54
2018-07-19 04:00,18.18,74.3,16.67,17.50,4.93
2018-07-19 05:00,15.25,51.4,16.80,11.92,9.51
2018-07-19 06:00,22.58,44.4,16.80,15.80,16.14
2018-07-19 07:00,9.09,76.0,16.71,8.82,2.20
2018-07-19 08:00,9.68,202.2,16.67,-3.66,-8.96
2018-07-19 09:00,18.77,213.5,16.64,-10.36,-15.65
2018-07-19 10:00,26.98,189.9,16.55,-4.66,-26.58
2018-07-19 11:00,30.80,179.0,16.42,0.51,-30.79
2018-07-19 12:00,29.62,200.1,16.20,-10.20,-27.81
2018-07-19 13:00,24.05,228.3,16.30,-17.95,-16.01
2018-07-19 14:00,16.72,278.9,16.30,-16.52,2.59
2018-07-19 15:00,32.85,317.2,16.61,-22.31,24.11
2018-07-19 16:00,38.42,346.4,16.33,-9.06,37.34
2018-07-19 17:00,45.46,12.7,16.36,10.02,44.34
2018-07-19 18:00,50.45,2.2,16.77,1.93,50.41
2018-07-19 19:00,35.20,18.4,17.08,11.09,33.40
2018-07-19 20:00,19.65,40.5,17.40,12.77,14.94
2018-07-19 21:00,14.96,78.5,17.24,14.66,2.99
2018-07-19 22:00,20.24,131.6,17.49,15.14,-13.43
2018-07-19 23:00,24.64,139.7,17.08,15.95,-18.78
2018-07-20 00:00,41.94,143.5,17.18,24.93,-33.73
2018-07-20 01:00,54.85,171.0,17.46,8.62,-54.17
2018-07-20 02:00,25.81,166.7,17.37,5.92,-25.12
2018-07-20 03:00,31.38,200.1,16.83,-10.81,-29.46
2018-07-20 04:00,5.57,284.9,17.12,-5.39,1.43
2018-07-20 05:00,14.96,326.4,16.99,-8.29,12.45
2018-07-20 06:00,45.75,328.1,16.89,-24.16,38.85
2018-07-20 07:00,29.62,323.6,16.99,-17.60,23.83
2018-07-20 08:00,17.01,341.1,16.89,-5.50,16.10
2018-07-20 09:00,35.78,332.7,16.89,-16.42,31.80
2018-07-20 10:00,22.00,318.3,16.89,-14.64,16.42
2018-07-20 11:00,28.16,0.4,16.96,0.21,28.16
2018-07-20 12:00,20.24,21.9,17.02,7.54,18.78
2018-07-20 13:00,25.81,60.2,17.12,22.40,12.83
2018-07-20 14:00,42.24,87.6,17.21,42.20,1.75
2018-07-20 15:00,40.48,115.1,17.53,36.67,-17.14
2018-07-20 16:00,37.84,123.5,17.53,31.55,-20.88
2018-07-20 17:00,29.33,128.1,17.37,23.09,-18.08
2018-07-20 18:00,8.21,194.5,17.18,-2.06,-7.95
2018-07-20 19:00,6.75,329.5,17.27,-3.42,5.81
2018-07-20 20:00,14.37,245.5,16.55,-13.08,-5.96
2018-07-20 21:00,36.08,263.1,17.15,-35.81,-4.35
2018-07-20 22:00,24.93,285.2,18.48,-24.06,6.55
2018-07-20 23:00,23.17,267.3,17.75,-23.14,-1.09
2018-07-21 00:00,17.30,219.1,17.75,-10.92,-13.42
2018-07-21 01:00,6.45,220.9,18.60,-4.22,-4.88
2018-07-21 02:00,8.51,306.3,17.65,-6.85,5.04
2018-07-21 03:00,16.13,9.6,18.57,2.68,15.91
2018-07-21 04:00,24.93,37.3,18.25,15.12,19.82
2018-07-21 05:00,24.34,79.2,18.22,23.91,4.57
2018-07-21 06:00,21.70,56.0,18.03,17.99,12.14
2018-07-21 07:00,20.53,64.8,17.97,18.57,8.75
2018-07-21 08:00,19.36,23.3,17.94,7.65,17.78
2018-07-21 09:00,5.57,343.2,18.00,-1.61,5.33
2018-07-21 10:00,4.11,298.9,17.97,-3.59,1.99
2018-07-21 11:00,4.69,253.9,18.03,-4.51,-1.30
2018-07-21 12:00,16.42,176.9,18.03,0.88,-16.40
2018-07-21 13:00,12.61,165.7,18.00,3.12,-12.22
2018-07-21 14:00,15.25,184.3,17.97,-1.15,-15.21
2018-07-21 15:00,18.48,136.1,18.03,12.80,-13.33
2018-07-21 16:00,10.56,124.2,17.94,8.73,-5.93
2018-07-21 17:00,8.51,117.2,17.68,7.57,-3.88
2018-07-21 18:00,26.98,332.3,18.00,-12.53,23.90
2018-07-21 19:00,43.12,336.6,18.86,-17.15,39.56
2018-07-21 20:00,35.20,352.7,19.05,-4.47,34.91
2018-07-21 21:00,33.14,12.7,18.32,7.31,32.33
2018-07-21 22:00,34.32,4.7,18.54,2.78,34.20
2018-07-21 23:00,16.72,3.2,17.21,0.95,16.69
2018-07-22 00:00,20.82,70.4,19.08,19.62,6.99
2018-07-22 01:00,25.52,94.0,17.84,25.46,-1.76
2018-07-22 02:00,42.53,112.6,18.19,39.27,-16.34
2018-07-22 03:00,30.80,129.8,18.29,23.65,-19.72
2018-07-22 04:00,25.22,126.7,18.16,20.24,-15.06
2018-07-22 05:00,31.68,123.5,18.32,26.42,-17.48
2018-07-22 06:00,26.40,145.3,16.77,15.03,-21.70
2018-07-22 07:00,8.21,236.4,17.81,-6.84,-4.55
2018-07-22 08:00,29.92,318.6,18.25,-19.77,22.45
2018-07-22 09:00,29.62,335.5,18.00,-12.28,26.96
2018-07-22 10:00,30.80,334.8,18.00,-13.11,27.87
2018-07-22 11:00,46.93,324.3,18.06,-27.41,38.09
2018-07-22 12:00,53.67,321.4,18.13,-33.46,41.97
2018-07-22 13:00,4.40,271.2,17.56,-4.40,0.09
2018-07-22 14:00,20.53,29.3,17.91,10.04,17.91
2018-07-22 15:00,34.90,95.4,18.16,34.75,-3.26
2018-07-22 16:00,38.42,92.9,18.22,38.37,-1.95
2018-07-22 17:00,31.38,110.1,17.94,29.47,-10.80
2018-07-22 18:00,37.84,112.6,18.19,34.93,-14.54
2018-07-22 19:00,9.39,136.5,18.19,6.46,-6.81
2018-07-22 20:00,11.44,345.0,18.16,-2.97,11.05
2018-07-22 21:00,16.72,341.1,18.10,-5.41,15.82
2018-07-22 22:00,27.28,0.4,18.06,0.21,27.28
2018-07-22 23:00,24.64,359.4,18.16,-0.27,24.64
2018-07-23 00:00,19.65,21.5,18.00,7.21,18.28
2018-07-23 01:00,17.30,42.3,18.03,11.64,12.80
2018-07-23 02:00,42.24,26.5,17.94,18.81,37.81
2018-07-23 03:00,40.77,114.0,17.84,37.24,-16.58
2018-07-23 04:00,36.37,126.7,17.72,29.18,-21.71
2018-07-23 05:00,28.74,128.1,17.72,22.63,-17.72
2018-07-23 06:00,26.40,134.0,17.62,18.98,-18.35
2018-07-23 07:00,7.33,172.0,17.62,1.02,-7.26
2018-07-23 08:00,14.08,35.2,17.53,8.12,11.50
2018-07-23 09:00,29.62,359.7,17.46,-0.14,29.62
2018-07-23 10:00,36.66,350.9,17.43,-5.77,36.20
2018-07-23 11:00,28.45,19.4,17.27,9.46,26.83
2018-07-23 12:00,30.50,359.7,17.34,-0.14,30.50
2018-07-23 13:00,6.45,13.4,17.27,1.50,6.28
2018-07-23 14:00,9.97,80.2,17.24,9.83,1.69
2018-07-23 15:00,20.24,130.2,17.37,15.46,-13.06
2018-07-23 16:00,14.37,106.3,17.43,13.80,-4.02
2018-07-23 17:00,23.76,162.9,17.46,7.00,-22.70
2018-07-23 18:00,3.52,180.1,17.59,-0.01,-3.52
2018-07-23 19:00,6.75,253.2,17.65,-6.46,-1.95
2018-07-23 20:00,17.30,8.9,17.72,2.67,17.10
2018-07-23 21:00,27.28,347.8,17.78,-5.78,26.66
2018-07-23 22:00,40.48,348.1,17.75,-8.33,39.61
2018-07-23 23:00,31.38,5.0,17.72,2.74,31.26
2018-07-24 00:00,28.74,12.4,17.65,6.17,28.07
2018-07-24 01:00,27.28,13.8,17.65,6.50,26.49
2018-07-24 02:00,10.85,88.3,17.59,10.85,0.32
2018-07-24 03:00,16.42,108.7,17.46,15.56,-5.27
2018-07-24 04:00,23.76,134.7,17.94,16.87,-16.72
2018-07-24 05:00,30.80,151.6,17.84,14.64,-27.10
2018-07-24 06:00,15.84,154.8,17.72,6.75,-14.33
2018-07-24 07:00,25.22,121.0,17.62,21.61,-13.00
2018-07-24 08:00,16.72,144.6,17.65,9.69,-13.63
2018-07-24 09:00,8.21,0.1,17.75,0.01,8.21
2018-07-24 10:00,16.72,2.9,17.65,0.84,16.70
2018-07-24 11:00,,,,,
2018-07-24 12:00,21.70,332.7,17.81,-9.96,19.29
2018-07-24 13:00,27.28,322.1,17.78,-16.74,21.54
2018-07-24 14:00,7.63,6.4,17.87,0.85,7.58
2018-07-24 15:00,12.03,55.3,17.91,9.88,6.85
2018-07-24 16:00,16.72,80.2,18.25,16.48,2.83
2018-07-24 17:00,19.06,119.3,18.41,16.63,-9.32
2018-07-24 18:00,6.45,135.8,18.41,4.50,-4.63
2018-07-24 19:00,17.30,93.3,18.76,17.28,-0.98
2018-07-24 20:00,17.89,61.6,18.86,15.74,8.51
2018-07-24 21:00,26.10,44.7,19.18,18.37,18.54
2018-07-24 22:00,23.76,35.9,19.18,13.95,19.23
2018-07-24 23:00,22.29,12.4,19.14,4.78,21.77
2018-07-25 00:00,14.96,357.3,19.02,-0.71,14.94
2018-07-25 01:00,21.41,24.3,18.95,8.82,19.51
2018-07-25 02:00,8.80,17.7,19.05,2.67,8.38
2018-07-25 03:00,13.79,99.2,19.14,13.61,-2.21
2018-07-25 04:00,19.36,103.1,19.14,18.85,-4.39
2018-07-25 05:00,22.88,118.2,19.11,20.16,-10.82
2018-07-25 06:00,8.80,127.4,19.02,6.99,-5.34
2018-07-25 07:00,16.13,109.8,18.64,15.18,-5.46
2018-07-25 08:00,14.96,79.5,18.54,14.71,2.72
2018-07-25 09:00,22.29,50.4,18.73,17.17,14.22
2018-07-25 10:00,24.34,71.1,18.89,23.03,7.88
2018-07-25 11:00,19.36,35.9,18.89,11.36,15.67
2018-07-25 12:00,14.66,41.6,18.95,9.73,10.97
2018-07-25 13:00,,,,,
2018-07-25 14:00,26.10,341.8,19.05,-8.14,24.80
2018-07-25 15:00,8.21,61.6,19.11,7.22,3.90
2018-07-25 16:00,17.30,15.9,19.24,4.74,16.64
2018-07-25 17:00,24.34,88.0,19.30,24.33,0.86
2018-07-25 18:00,21.12,69.0,19.46,19.71,7.57
2018-07-25 19:00,22.00,31.0,19.43,11.34,18.85
2018-07-25 20:00,12.91,55.3,19.46,10.61,7.35
2018-07-25 21:00,37.25,27.9,19.46,17.40,32.93
2018-07-25 22:00,36.96,62.3,19.40,32.72,17.17
2018-07-25 23:00,24.64,49.0,19.30,18.58,16.18
2018-07-26 00:00,22.88,24.7,19.21,9.56,20.79
2018-07-26 01:00,23.76,356.9,19.08,-1.28,23.72
2018-07-26 02:00,19.94,2.5,18.95,0.88,19.92
2018-07-26 03:00,41.65,329.2,18.86,-21.34,35.77
2018-07-26 04:00,18.77,65.1,18.83,17.03,7.90
2018-07-26 05:00,20.53,79.9,18.60,20.21,3.60
2018-07-26 06:00,29.92,91.8,18.44,29.90,-0.96
2018-07-26 07:00,33.14,82.7,18.16,32.87,4.21
2018-07-26 08:00,35.49,85.2,17.94,35.36,2.99
2018-07-26 09:00,38.72,92.6,18.29,38.68,-1.72
2018-07-26 10:00,27.57,83.4,18.25,27.39,3.16
2018-07-26 11:00,24.93,32.8,18.13,13.50,20.96
2018-07-26 12:00,29.33,20.5,18.06,10.26,27.48
2018-07-26 13:00,32.85,24.3,18.00,13.54,29.93
2018-07-26 14:00,28.74,27.9,18.00,13.43,25.41
2018-07-26 15:00,26.98,18.4,17.94,8.50,25.61
2018-07-26 16:00,28.16,20.1,18.10,9.69,26.44
2018-07-26 17:00,30.80,65.5,18.29,28.02,12.78
2018-07-26 18:00,40.48,69.7,18.38,37.96,14.04
2018-07-26 19:00,43.12,103.1,18.44,41.99,-9.77
2018-07-26 20:00,37.84,91.5,18.22,37.82,-0.99
2018-07-26 21:00,37.54,119.3,18.25,32.75,-18.36
2018-07-26 22:00,16.72,109.1,18.13,15.80,-5.46
2018-07-26 23:00,12.03,100.3,17.87,11.83,-2.15
2018-07-27 00:00,15.54,11.7,17.87,3.15,15.22
2018-07-27 01:00,14.66,32.4,17.81,7.86,12.38
2018-07-27 02:00,7.04,359.7,17.78,-0.03,7.04
2018-07-27 03:00,16.72,316.2,17.78,-11.58,12.06
2018-07-27 04:00,15.84,283.1,17.72,-15.42,3.59
2018-07-27 05:00,4.40,293.3,17.78,-4.04,1.74
2018-07-27 06:00,,,,,
2018-07-27 07:00,10.85,8.9,17.78,1.67,10.72
2018-07-27 08:00,19.94,80.2,17.72,19.66,3.38
2018-07-27 09:00,25.52,95.0,17.75,25.42,-2.23
2018-07-27 10:00,28.45,102.0,18.03,27.82,-5.94
2018-07-27 11:00,19.94,85.2,18.06,19.87,1.68
2018-07-27 12:00,20.24,59.9,18.19,17.50,10.16
2018-07-27 13:00,19.06,5.0,18.35,1.66,18.99
2018-07-27 14:00,9.68,53.2,18.48,7.75,5.80
2018-07-27 15:00,3.23,291.6,18.51,-3.00,1.19
2018-07-27 16:00,30.50,319.3,18.44,-19.88,23.14
2018-07-27 17:00,8.80,272.2,18.67,-8.79,0.34
2018-07-27 18:00,2.93,229.3,18.73,-2.22,-1.91
2018-07-27 19:00,14.96,192.4,18.73,-3.21,-14.61
2018-07-27 20:00,2.35,180.1,18.51,-0.00,-2.35
2018-07-27 21:00,12.03,35.9,18.92,7.06,9.74
2018-07-27 22:00,22.58,64.4,18.95,20.37,9.75
2018-07-27 23:00,34.32,18.7,19.05,11.01,32.50
2018-07-28 00:00,30.21,35.2,18.98,17.43,24.67
2018-07-28 01:00,14.08,25.4,18.95,6.04,12.72
2018-07-28 02:00,30.21,21.2,18.76,10.91,28.17
2018-07-28 03:00,21.70,27.5,18.79,10.02,19.25
2018-07-28 04:00,20.82,355.5,18.79,-1.63,20.76
2018-07-28 05:00,11.44,18.7,18.86,3.67,10.83
2018-07-28 06:00,17.30,91.8,18.73,17.30,-0.56
2018-07-28 07:00,14.66,117.9,18.64,12.96,-6.85
2018-07-28 08:00,30.50,149.9,18.54,15.32,-26.38
2018-07-28 09:00,18.18,75.7,18.54,17.62,4.50
2018-07-28 10:00,21.70,147.8,18.51,11.58,-18.36
2018-07-28 11:00,9.97,12.7,18.48,2.20,9.73
2018-07-28 12:00,28.74,356.2,18.54,-1.90,28.68
2018-07-28 13:00,29.92,340.4,18.54,-10.02,28.19
2018-07-28 14:00,14.96,319.7,18.54,-9.68,11.41
2018-07-28 15:00,22.00,325.7,18.54,-12.41,18.16
2018-07-28 16:00,33.73,325.7,18.54,-19.03,27.85
2018-07-28 17:00,85.64,330.9,18.89,-41.61,74.86
2018-07-28 18:00,23.46,348.1,18.86,-4.83,22.96
2018-07-28 19:00,33.14,27.9,18.92,15.49,29.30
2018-07-28 20:00,31.97,69.7,18.89,29.98,11.09
2018-07-28 21:00,45.17,89.0,18.79,45.16,0.76
2018-07-28 22:00,28.16,98.5,18.76,27.85,-4.18
2018-07-28 23:00,20.24,107.0,18.57,19.36,-5.91
2018-07-29 00:00,10.85,94.3,18.51,10.82,-0.82
2018-07-29 01:00,7.63,1.1,18.51,0.15,7.62
2018-07-29 02:00,,,,,
2018-07-29 03:00,18.18,318.6,18.67,-12.02,13.65
2018-07-29 04:00,22.88,321.1,18.76,-14.37,17.80
2018-07-29 05:00,38.42,349.5,18.83,-6.98,37.78
2018-07-29 06:00,31.97,358.0,18.89,-1.13,31.95
2018-07-29 07:00,13.79,66.5,18.79,12.64,5.49
2018-07-29 08:00,22.58,112.9,18.79,20.80,-8.80
2018-07-29 09:00,32.56,97.1,18.67,32.31,-4.04
2018-07-29 10:00,18.48,68.3,18.51,17.17,6.84
2018-07-29 11:00,29.33,91.5,18.32,29.32,-0.77
2018-07-29 12:00,19.36,46.5,18.38,14.04,13.33
2018-07-29 13:00,15.25,351.6,18.32,-2.22,15.09
2018-07-29 14:00,16.42,357.3,18.29,-0.78,16.41
2018-07-29 15:00,22.88,349.5,18.19,-4.16,22.50
2018-07-29 16:00,32.26,316.9,18.44,-22.06,23.55
2018-07-29 17:00,31.97,338.0,18.86,-11.99,29.64
2018-07-29 18:00,11.73,3.2,18.89,0.66,11.71
2018-07-29 19:00,5.28,127.4,18.67,4.20,-3.20
2018-07-29 20:00,18.18,191.4,18.64,-3.58,-17.83
2018-07-29 21:00,8.80,75.3,19.24,8.51,2.23
2018-07-29 22:00,24.64,160.4,19.14,8.26,-23.21
2018-07-29 23:00,5.57,57.0,18.73,4.68,3.03
2018-07-30 00:00,17.01,2.2,18.73,0.65,17.00
2018-07-30 01:00,32.56,341.1,18.89,-10.53,30.81
2018-07-30 02:00,29.04,2.2,19.05,1.11,29.02
2018-07-30 03:00,21.70,6.1,19.08,2.29,21.58
2018-07-30 04:00,18.48,8.9,19.08,2.85,18.26
2018-07-30 05:00,45.17,353.0,19.11,-5.47,44.84
2018-07-30 06:00,20.24,52.5,19.11,16.05,12.33
2018-07-30 07:00,27.86,94.3,19.05,27.78,-2.09
2018-07-30 08:00,34.32,146.3,19.02,19.02,-28.56
2018-07-30 09:00,42.53,123.8,19.08,35.32,-23.69
2018-07-30 10:00,43.99,146.7,19.11,24.16,-36.77
2018-07-30 11:00,23.76,139.7,19.05,15.38,-18.11
2018-07-30 12:00,14.96,129.5,18.60,11.55,-9.51
2018-07-30 13:00,13.79,248.0,18.76,-12.78,-5.17
2018-07-30 14:00,31.68,298.6,19.05,-27.81,15.16
2018-07-30 15:00,36.37,325.3,18.86,-20.70,29.90
2018-07-30 16:00,23.46,335.9,19.30,-9.60,21.41
2018-07-30 17:00,33.14,319.0,19.11,-21.75,25.01